GFSNGP_con_3kmhel_159.txt.gz
Helicity
58 58 52 20 -1 6 23 26 58 37 55 34 134 173 282 334 289 213 238 113 115 108 89 85 85 69 61 43 49 35 34 68 68 80 72 80 79 74 81 79 80 79 63 63
37 23 17 28 32 14 20 12 25 -44 -22 -37 192 164 207 294 309 208 114 112 125 96 78 88 75 54 54 55 46 46 62 58 67 75 70 58 60 63 69 66 63 58 56 53
50 9 3 23 65 15 -1 -19 -13 -20 -8 23 126 93 181 206 168 107 111 128 110 92 96 86 76 63 70 59 52 58 59 71 76 48 53 58 39 27 36 48 53 50 40 49
31 17 52 43 66 45 62 8 22 -32 -13 -7 21 58 97 135 100 89 129 126 119 120 103 87 81 74 58 57 52 61 81 62 49 57 57 29 14 9 0 2 7 4 12 23
36 27 32 -2 16 69 76 -1 1 -1 36 46 213 231 135 39 75 107 119 132 121 119 105 94 83 62 59 51 73 70 51 54 64 43 30 15 10 3 -1 6 8 1 -5 1
8 13 26 1 129 121 82 -40 96 67 59 148 186 81 64 145 197 168 149 144 142 127 112 102 78 67 78 79 51 36 48 41 25 16 9 8 2 -2 1 0 8 11 11 1
32 35 37 15 79 87 14 18 72 58 83 85 31 74 189 209 216 168 163 152 127 109 101 80 73 80 73 41 38 30 12 7 -9 -8 -1 1 6 13 14 25 28 24 21 19
45 18 -14 75 150 16 84 69 63 16 62 61 163 145 185 185 196 177 155 141 111 113 91 81 75 58 45 41 23 14 12 0 -8 -6 3 9 10 16 18 21 26 26 21 20
63 81 72 70 62 96 63 36 19 32 28 145 128 128 145 145 151 151 150 125 97 87 94 81 57 44 46 28 14 13 9 -3 -2 10 12 20 28 31 36 32 37 35 33 30
38 34 43 41 59 39 1 0 36 47 86 82 114 127 132 140 145 144 132 99 88 94 87 70 51 42 34 31 28 20 11 9 13 11 17 22 29 35 39 38 39 43 42 41
-22 -12 21 37 23 6 12 63 66 83 70 95 125 119 123 125 121 115 89 85 85 82 63 59 46 36 25 26 23 13 7 8 13 26 23 39 45 37 39 57 41 32 38 36
7 38 63 80 106 18 34 57 68 77 94 113 106 112 114 109 95 82 81 79 75 68 59 50 37 29 30 23 12 12 15 18 22 24 35 43 44 85 95 84 76 76 74 70
44 107 85 75 33 54 24 54 87 94 113 125 111 114 111 106 79 77 73 72 72 69 67 60 51 57 42 36 31 29 34 40 46 42 51 58 63 69 75 116 111 115 108 94
95 86 64 52 61 55 68 100 118 127 125 121 125 122 118 91 88 65 68 73 80 82 78 69 64 60 54 59 62 62 60 65 62 70 73 76 81 86 84 82 81 107 123 99
52 64 90 35 43 62 91 123 133 148 142 138 120 111 99 84 61 59 80 99 90 79 66 59 49 60 65 65 67 69 71 73 86 87 91 93 89 91 92 91 95 100 105 121
53 33 20 35 48 74 91 109 133 134 127 119 107 100 76 81 78 85 96 105 91 79 66 62 60 66 70 65 65 71 74 90 93 82 94 93 98 98 98 102 103 115 116 145
46 33 40 40 50 61 74 90 101 103 100 92 90 85 87 93 105 96 99 107 116 132 133 117 83 99 85 80 84 85 84 102 100 102 103 113 114 112 118 119 118 131 142 232
48 48 33 37 40 52 65 82 97 95 90 82 92 101 115 108 94 108 127 144 142 145 111 105 111 127 118 112 101 97 104 108 115 106 119 131 118 138 138 149 150 157 161 197
51 41 50 44 48 58 79 85 92 83 107 143 151 131 141 156 150 156 155 136 113 105 105 128 131 130 121 115 105 108 117 125 130 132 137 159 149 128 149 151 162 167 162 161
86 89 77 68 82 76 114 149 201 180 139 154 156 136 116 116 128 122 110 94 85 96 138 127 139 130 125 129 128 125 133 135 124 125 147 138 157 151 164 169 153 145 157 154
81 86 97 122 156 166 154 149 157 113 94 111 107 92 92 105 114 114 101 85 92 144 150 144 133 133 138 141 146 142 144 141 127 128 136 144 149 151 152 163 161 152 146 143
53 59 76 91 101 106 101 99 99 99 90 90 90 106 102 101 101 94 85 85 98 134 133 142 136 121 125 152 129 126 128 133 140 147 145 148 150 145 148 147 143 131 123 115
51 54 62 69 69 73 79 74 81 84 81 79 83 88 83 78 82 90 88 83 120 145 119 114 125 133 135 174 145 144 142 141 140 137 138 150 149 146 135 123 115 110 99 90
40 51 61 66 65 63 64 65 73 81 83 79 77 83 85 89 90 73 88 146 99 124 103 124 129 133 147 155 153 145 138 136 133 130 129 132 136 125 113 99 89 80 75 71
58 56 56 55 51 52 60 60 67 75 77 70 81 81 75 82 91 101 105 112 119 110 116 107 136 140 148 144 141 144 148 143 136 134 129 123 111 106 92 84 79 69 65 63
62 69 66 74 88 74 69 68 66 68 70 73 76 88 92 100 117 131 130 122 123 111 126 147 146 148 145 144 146 161 155 145 142 137 120 112 105 91 78 69 64 59 57 67
41 40 47 49 60 64 71 75 72 79 81 90 91 101 87 93 102 112 117 127 131 137 142 163 161 151 154 156 163 167 154 134 121 113 106 97 84 76 72 70 89 131 159 211

GFSNGP_con_3kmhel_162.txt.gz
Helicity
38 47 56 44 54 68 79 53 63 50 62 61 91 158 213 423 326 303 259 319 274 131 81 55 64 57 67 46 53 22 48 60 39 51 33 39 32 31 20 24 40 24 32 43
18 44 36 47 44 36 44 50 44 21 37 51 63 81 216 428 350 242 272 293 178 124 49 73 79 58 64 63 77 64 75 49 61 48 47 39 22 24 30 21 21 -6 17 42
39 55 66 111 109 28 -35 -24 -28 10 31 55 81 148 132 365 224 221 242 198 80 60 67 90 105 82 77 88 75 78 62 64 52 45 41 43 49 41 31 21 14 12 1 -5
96 93 126 121 21 6 46 36 17 20 49 10 50 145 183 198 203 179 145 84 69 84 99 117 102 94 93 90 81 74 68 57 38 43 47 44 40 34 25 18 17 16 7 -3
162 152 75 -12 -31 -20 141 40 12 19 60 43 142 299 239 271 137 100 75 106 105 123 122 117 104 91 95 88 89 76 54 40 37 33 34 28 27 28 28 31 33 38 40 35
90 104 64 11 54 79 148 42 154 146 101 117 87 94 181 147 55 129 144 138 161 142 126 155 119 134 168 148 106 72 30 22 24 12 13 17 15 19 30 36 34 37 37 29
32 53 36 1 26 136 51 91 126 121 93 128 119 133 102 142 271 234 203 170 180 144 138 163 172 129 136 87 53 19 21 -3 1 -2 8 2 8 18 24 30 38 41 44 41
51 18 1 39 28 68 109 95 99 63 114 209 222 218 281 268 299 248 231 200 135 126 127 119 117 110 86 56 33 20 13 17 12 12 9 4 5 18 20 36 50 56 62 61
94 118 167 103 59 34 79 85 97 81 117 184 181 194 232 232 259 223 162 117 126 144 122 104 89 69 62 39 28 20 26 21 19 18 10 8 18 20 31 41 52 57 63 72
36 53 18 46 97 96 72 88 81 66 128 100 113 128 180 188 159 172 161 146 143 149 118 102 80 59 41 38 37 35 30 26 20 21 23 16 25 30 44 45 46 52 53 56
51 6 28 43 27 99 129 72 46 82 103 93 133 122 123 135 165 176 153 140 175 139 124 102 79 60 46 40 43 37 33 27 33 39 26 50 61 46 58 70 61 55 60 53
-21 15 58 55 99 123 121 85 60 112 89 101 116 134 125 154 159 140 123 134 133 133 118 99 76 57 45 46 41 48 43 33 57 50 51 57 59 84 82 96 83 82 80 79
11 84 62 155 94 79 112 80 74 75 83 123 127 130 130 165 154 117 103 110 104 109 107 90 73 72 57 61 53 55 46 89 72 62 70 79 73 71 76 89 79 84 84 91
49 73 64 78 114 106 71 87 123 92 141 134 144 137 150 151 173 102 101 96 106 130 149 151 158 166 158 172 122 110 116 108 96 94 89 90 89 91 97 94 97 103 81 73
91 57 80 103 83 61 73 118 107 162 145 141 157 138 161 173 129 95 119 101 134 140 125 119 117 117 116 103 92 95 99 93 89 88 96 108 120 102 106 108 106 102 117 125
87 103 82 73 79 68 74 90 104 148 146 163 157 163 158 158 105 105 121 124 150 126 108 107 108 122 117 118 123 122 106 108 124 110 108 123 111 110 114 114 121 119 129 192
111 75 45 35 35 52 61 73 107 122 140 141 139 146 134 135 100 133 131 147 157 141 145 150 156 172 150 146 137 124 122 121 120 121 119 124 125 131 121 131 129 129 153 219
78 149 67 33 42 47 61 88 117 142 125 123 141 151 145 132 130 162 190 238 219 216 199 188 211 190 167 147 135 128 124 131 153 120 114 119 151 130 170 145 149 157 180 197
131 105 97 66 51 64 65 94 135 138 147 165 185 164 156 178 203 228 235 227 188 162 147 178 175 179 162 157 147 149 151 160 161 153 148 143 176 140 131 139 174 203 194 173
124 128 122 95 131 112 145 168 200 205 192 209 211 185 177 188 202 205 180 151 133 122 123 145 157 148 132 138 139 154 152 149 154 149 157 171 175 183 183 188 185 179 174 169
71 94 107 108 140 173 186 172 196 187 158 144 133 122 132 149 155 157 137 104 92 122 144 150 161 136 127 141 162 157 162 170 178 176 174 177 178 160 174 175 176 175 164 153
52 49 61 87 105 126 131 130 138 133 118 108 107 115 123 120 125 112 97 90 103 149 152 158 147 117 126 137 145 160 155 161 183 190 190 188 188 191 184 187 187 168 150 140
52 50 54 66 74 82 86 89 94 87 82 82 85 88 84 93 96 98 90 73 103 158 143 119 121 121 113 181 168 186 174 165 167 182 178 179 194 203 203 189 176 157 140 126
47 56 60 61 59 59 66 63 63 69 72 76 79 87 91 92 90 78 102 117 110 140 123 125 130 154 159 178 193 195 184 165 172 185 183 190 191 193 183 162 143 124 113 102
42 40 41 37 38 53 72 61 64 71 70 60 77 84 73 80 93 103 123 143 141 144 140 132 151 170 186 184 172 168 178 199 213 211 199 182 170 155 137 120 108 100 93 93
66 66 63 67 83 80 67 46 46 56 55 65 70 90 100 99 121 144 156 156 143 136 134 151 159 198 206 178 167 178 215 231 219 201 174 156 142 129 119 102 95 93 117 213
41 57 52 48 62 72 84 87 89 103 97 94 93 89 93 87 91 111 113 126 134 147 131 148 201 202 179 159 161 181 202 182 160 159 138 114 113 103 93 113 195 213 205 193

GFSNGP_con_3kmhel_165.txt.gz
Helicity
61 77 93 44 21 26 79 103 170 116 147 129 140 85 84 232 503 566 498 423 326 250 275 274 112 53 24 24 34 10 27 46 54 40 33 20 27 16 17 17 -23 -29 7 -27
60 52 48 46 60 71 76 72 63 95 66 93 119 79 78 265 389 374 405 322 249 226 222 146 41 25 19 39 24 23 48 58 62 51 42 33 42 41 39 18 -10 -8 29 -18
82 77 75 49 121 103 75 73 38 56 51 68 65 87 125 176 298 389 282 290 210 227 106 43 67 24 38 52 60 83 83 81 74 60 42 43 34 42 41 42 37 26 10 22
135 109 93 156 90 51 97 90 82 64 26 31 70 87 250 223 303 248 318 242 144 92 56 98 77 87 86 89 118 112 98 91 62 41 36 22 32 34 30 33 40 44 42 41
163 153 111 84 15 65 59 13 41 92 65 86 154 261 197 189 209 244 221 139 105 104 140 138 124 107 112 123 117 112 92 69 56 30 17 23 23 26 38 48 55 57 52 45
119 137 138 78 54 54 45 4 144 99 82 147 186 140 106 155 176 146 121 119 194 190 180 147 125 147 200 186 195 166 127 64 42 24 26 23 25 33 30 44 51 63 51 39
156 134 127 86 33 64 43 48 45 69 63 145 136 111 162 156 101 99 170 254 252 233 216 202 190 219 200 170 153 106 84 71 61 46 22 24 31 40 48 41 45 44 54 40
169 137 75 58 97 96 68 54 24 68 102 172 196 256 261 201 257 326 310 286 264 243 218 182 159 160 148 112 72 56 34 27 26 39 27 22 36 34 42 41 44 43 48 43
145 69 73 31 31 94 57 74 87 113 131 236 252 233 264 300 336 378 345 272 223 203 178 133 113 123 124 61 53 41 34 20 15 24 34 28 40 46 41 49 53 46 56 49
64 67 83 19 36 59 95 83 85 151 171 209 248 252 285 323 333 308 229 197 199 179 142 121 104 85 85 70 42 34 24 9 6 23 30 47 61 51 56 53 58 61 63 58
12 -1 27 65 81 69 74 120 115 216 186 166 223 216 285 257 250 229 190 211 207 154 132 109 104 83 74 65 53 38 24 18 19 18 42 48 47 61 67 38 56 55 41 48
-37 -16 -12 88 68 108 138 113 131 230 187 204 204 211 209 200 235 217 214 209 187 160 145 114 100 94 70 63 51 44 35 27 40 43 34 57 68 65 62 79 73 77 79 79
14 6 15 48 77 90 44 132 144 203 210 210 152 174 171 218 212 183 213 203 196 188 155 127 93 81 86 63 44 68 57 62 88 98 82 108 112 103 91 69 65 62 63 65
131 94 72 39 48 89 143 122 150 154 205 193 179 169 201 220 187 156 163 163 168 172 143 106 86 108 103 148 163 162 150 159 126 123 134 126 113 103 106 106 102 87 50 68
139 110 102 85 74 72 92 161 197 207 239 225 197 196 224 232 181 143 157 153 164 158 138 141 137 147 158 182 164 151 150 142 138 134 121 116 126 125 108 110 117 113 149 131
111 107 109 73 73 63 121 152 194 223 233 205 211 208 233 219 169 156 165 170 218 170 148 146 135 145 168 179 160 137 132 135 129 125 128 138 136 130 119 120 127 142 149 138
106 94 77 72 61 66 75 107 132 171 197 209 206 233 247 203 171 169 154 172 219 201 159 154 133 163 167 158 159 149 130 121 127 144 136 132 136 134 130 139 143 146 145 150
132 174 147 123 85 56 62 65 108 169 173 169 198 212 214 191 154 153 182 212 208 182 159 139 167 176 168 161 152 140 133 132 153 146 139 134 124 153 181 177 163 163 184 167
219 197 151 124 145 49 52 76 112 155 157 158 179 173 162 150 151 186 219 227 208 190 145 193 204 206 179 163 163 160 133 133 161 154 137 123 142 174 166 151 153 180 177 181
94 86 97 116 143 113 113 131 168 181 164 196 217 206 182 161 181 204 202 178 163 144 171 173 197 187 178 167 167 162 138 131 136 164 183 189 196 180 177 183 181 181 182 181
75 69 86 104 124 168 192 163 174 175 165 183 181 154 147 142 165 192 184 141 101 113 127 149 171 172 174 172 168 164 162 160 160 158 173 186 196 205 201 200 208 198 182 170
61 60 69 83 94 116 143 140 149 152 147 143 133 132 131 117 125 124 111 119 88 107 142 146 153 150 160 164 169 169 150 140 148 175 196 196 205 205 206 210 212 195 179 168
56 52 61 75 72 77 94 111 102 93 96 98 93 90 96 98 115 123 73 65 94 113 147 136 131 129 127 146 158 169 159 156 149 153 183 208 222 229 225 215 201 194 177 151
52 52 58 56 53 65 78 68 70 68 65 62 64 63 78 90 78 69 66 66 99 121 131 127 110 111 114 137 155 168 183 187 179 190 208 221 229 221 206 187 176 156 143 122
54 44 54 62 54 64 65 55 65 65 66 59 59 60 61 76 76 71 104 111 111 129 135 116 104 121 161 178 193 199 201 206 210 222 210 198 180 181 171 157 145 133 118 131
87 69 60 77 99 91 57 57 60 53 45 47 61 67 71 88 104 114 138 140 145 137 138 135 151 172 200 218 211 188 183 188 203 206 215 211 183 169 154 136 120 160 221 221
68 79 56 72 65 57 71 87 96 102 97 88 77 76 85 80 79 98 112 121 132 131 137 137 156 190 201 186 165 146 146 193 196 186 175 153 129 129 129 175 243 239 231 208

GFSNGP_con_3kmhel_168.txt.gz
Helicity
92 55 51 37 21 4 14 88 164 29 95 82 138 199 81 122 323 375 385 421 440 382 374 250 247 230 165 77 61 48 35 24 38 38 31 39 31 40 29 35 28 23 -3 -4
45 51 46 46 61 61 55 45 96 125 79 93 70 109 116 158 272 269 320 398 418 282 288 200 204 173 64 52 37 29 23 36 45 33 30 34 26 25 37 33 17 29 12 11
88 74 94 48 67 53 90 107 134 123 126 138 101 108 118 172 225 241 299 363 299 265 204 198 143 50 56 39 34 27 39 52 58 57 48 32 28 29 13 21 24 19 22 24
119 139 68 69 43 8 73 96 77 78 92 91 55 62 93 168 194 232 277 280 256 202 173 127 66 81 50 56 64 76 84 73 64 57 37 32 28 14 18 25 39 35 32 34
130 134 83 40 1 70 102 79 44 17 38 78 49 67 68 115 132 173 282 237 164 138 137 111 94 84 81 99 121 119 100 80 56 51 45 37 13 12 25 45 48 41 37 34
162 123 87 47 20 39 63 91 59 49 44 33 80 84 54 128 156 164 154 148 152 140 143 152 118 142 163 164 165 127 93 88 72 65 68 52 27 31 22 38 47 54 49 39
112 140 103 69 28 38 67 54 69 49 25 48 101 90 66 214 159 143 159 179 191 168 152 154 175 200 212 202 174 127 104 107 98 78 64 46 52 47 43 50 65 72 72 53
171 139 82 47 28 71 28 38 34 15 36 60 88 124 220 207 173 213 211 187 197 202 186 166 177 218 188 158 118 104 91 88 80 63 40 36 50 57 67 72 87 88 80 65
90 79 107 111 80 27 54 33 5 66 63 94 142 152 206 205 233 231 206 188 196 226 203 161 152 172 163 103 85 78 70 62 63 53 41 41 58 66 78 83 89 86 84 74
126 90 55 31 -37 -6 50 106 18 73 130 169 180 218 246 236 241 254 231 219 201 221 188 147 109 94 103 112 70 61 63 61 50 51 54 60 62 72 95 96 99 92 86 79
18 25 8 11 24 17 39 88 23 120 184 190 213 218 246 231 226 225 237 206 198 184 149 121 115 89 93 95 81 53 51 53 46 39 42 54 57 66 76 52 81 79 69 77
17 -2 -9 8 24 54 82 72 117 171 217 208 197 242 239 220 205 227 224 199 176 137 118 112 103 93 82 73 78 78 68 57 44 46 45 54 75 78 57 73 69 75 92 96
24 -11 1 28 37 70 87 92 89 158 233 248 177 217 223 222 199 218 216 188 163 130 106 115 102 80 64 54 62 62 69 71 63 72 80 84 89 93 88 75 56 57 59 66
20 19 44 61 65 37 45 25 88 165 219 224 216 183 217 199 182 189 185 169 159 142 128 112 100 73 66 69 49 26 42 62 94 91 100 118 127 112 119 120 105 88 58 61
64 51 60 68 77 77 83 90 149 192 214 210 182 189 192 167 148 144 165 179 159 150 138 125 106 54 74 84 78 67 67 76 110 128 139 133 128 123 114 114 103 100 131 133
82 80 95 80 77 78 81 99 165 185 201 214 193 171 171 158 151 157 150 177 174 139 144 144 118 77 115 146 153 148 143 139 141 142 140 140 133 127 122 115 115 122 139 138
83 79 85 90 76 77 77 72 86 134 178 195 164 184 202 182 166 144 130 138 133 143 147 147 112 131 150 163 186 170 155 153 150 161 162 149 142 133 129 136 134 145 148 155
122 151 157 118 71 100 78 62 75 114 118 125 174 203 218 192 150 132 145 165 151 146 124 101 127 153 174 176 177 177 176 167 174 173 159 154 139 140 143 152 157 170 165 174
111 129 140 116 91 80 87 79 60 81 114 147 184 173 173 169 152 131 160 152 134 128 78 113 134 160 160 160 173 184 189 187 176 165 153 149 152 153 157 174 182 169 179 187
78 93 98 83 96 93 65 64 70 104 115 151 169 171 142 122 128 144 148 134 125 114 130 141 156 158 148 151 170 178 170 170 167 171 172 169 173 169 173 166 178 187 178 162
82 72 79 82 93 126 134 102 111 102 116 137 139 122 119 128 136 158 150 105 72 103 110 133 141 148 162 170 182 181 181 172 170 161 166 173 185 191 195 197 206 185 173 177
56 67 64 70 88 115 147 124 122 140 134 133 130 136 134 119 122 112 100 97 78 109 123 125 128 138 150 167 163 170 171 165 167 175 172 175 193 205 190 192 200 211 205 184
52 51 53 64 69 76 94 112 107 98 98 94 98 97 92 86 98 110 70 67 78 92 107 116 125 134 140 146 156 165 160 156 152 160 166 174 189 198 200 199 196 198 191 171
50 50 49 48 52 67 88 83 80 75 70 68 64 62 77 83 72 59 71 72 66 99 112 121 116 118 131 140 151 157 152 151 158 166 169 162 177 187 191 192 193 176 163 141
60 60 62 65 67 75 74 66 71 74 78 78 71 67 64 76 73 71 83 82 77 94 109 115 109 113 134 147 151 152 151 157 161 166 163 179 196 198 188 174 161 141 164 193
90 75 81 86 85 77 75 71 69 67 75 73 69 67 73 79 81 87 85 97 108 113 111 116 127 135 147 159 170 181 184 180 174 172 185 197 193 180 164 147 174 212 220 220
92 75 75 72 64 46 65 77 82 89 81 73 67 59 65 66 67 65 80 97 105 117 126 138 137 144 159 165 172 174 161 153 158 189 199 184 170 161 200 240 237 239 234 222

GFSNGP_con_3kmhel_171.txt.gz
Helicity
47 58 84 50 17 22 51 85 123 88 127 139 108 127 139 144 176 263 304 376 450 515 452 320 247 312 182 181 161 135 116 103 98 99 72 63 62 43 38 39 26 24 30 32
84 77 54 74 45 50 61 77 118 117 92 110 131 166 149 135 158 177 211 310 400 474 371 274 237 212 186 175 108 103 103 91 69 64 51 41 37 26 32 25 17 11 11 23
74 57 62 55 43 34 79 94 108 91 62 123 127 96 85 48 139 161 203 314 354 354 312 233 225 187 184 73 113 95 85 68 60 47 42 30 27 27 25 20 14 9 3 4
91 114 112 75 64 33 39 49 76 65 76 62 51 50 28 32 104 165 226 273 239 272 266 231 244 161 84 103 100 74 70 74 69 60 48 36 27 17 31 20 15 12 13 16
121 110 77 29 34 43 83 54 40 100 32 30 46 51 26 45 81 138 199 195 213 244 232 216 159 107 107 133 106 99 92 79 61 58 50 34 31 31 24 40 32 27 30 30
149 112 82 80 38 70 45 11 60 44 23 31 49 38 35 58 118 137 145 136 148 184 184 143 117 143 153 140 134 120 87 75 62 54 52 39 38 36 30 45 54 53 54 41
101 132 119 45 28 69 59 21 0 24 9 22 29 62 49 106 143 143 145 169 178 159 145 150 160 174 165 152 129 118 121 101 81 64 63 52 54 44 55 61 72 66 68 53
127 112 75 63 81 96 56 48 55 30 14 9 8 56 96 144 179 157 175 155 145 187 183 169 166 185 161 121 117 138 127 105 81 69 62 57 80 70 68 82 89 79 69 62
123 74 126 77 77 83 76 50 24 28 50 30 47 69 100 135 169 139 154 159 161 190 190 166 153 164 161 108 150 143 116 82 49 44 48 58 82 87 87 80 94 88 80 71
79 105 67 29 38 7 24 21 43 61 45 86 81 99 109 168 170 167 159 161 159 191 184 146 118 119 132 162 138 128 100 63 45 49 52 62 67 70 92 98 99 98 98 76
110 34 -48 16 17 24 12 13 52 43 63 88 132 125 141 164 174 161 158 151 169 169 157 138 132 119 138 169 150 88 62 57 52 44 61 78 78 67 72 56 84 86 63 81
59 -2 20 17 -4 9 5 35 32 86 103 105 163 165 147 158 165 177 180 168 172 150 153 142 130 121 134 141 123 93 52 46 59 69 84 85 80 81 66 72 60 58 78 102
43 51 4 -45 19 45 43 44 41 62 99 118 155 161 161 165 161 171 184 171 167 151 138 145 130 121 123 123 120 104 78 69 79 83 90 88 88 83 64 64 54 52 61 69
30 -5 -17 31 35 60 40 25 37 69 105 146 193 167 171 166 169 181 169 163 176 169 148 125 120 99 119 133 117 108 101 87 95 83 85 91 91 89 104 106 109 95 66 54
35 42 53 49 52 42 49 51 61 68 110 151 168 168 156 156 143 139 156 173 168 160 133 117 104 61 99 115 108 98 96 97 103 101 107 106 114 122 131 133 123 111 136 133
59 87 66 48 30 37 51 62 68 71 114 155 151 134 111 117 142 156 157 174 170 129 124 128 114 73 116 125 114 115 112 111 131 133 144 158 163 151 145 140 137 132 136 129
74 62 57 37 38 52 46 55 54 70 117 131 117 141 126 128 133 128 125 121 121 143 138 136 105 128 138 148 149 138 141 146 155 180 181 173 173 170 159 155 149 148 141 151
72 67 69 68 64 75 77 72 64 82 78 78 96 136 153 144 117 116 122 134 133 119 90 85 118 130 134 143 157 169 180 184 187 177 171 175 167 162 166 168 163 157 151 170
86 79 79 77 84 73 71 68 65 75 63 87 111 98 122 116 137 145 146 142 124 97 46 89 91 112 110 121 157 182 186 187 181 175 169 167 173 172 174 172 161 163 173 181
78 71 78 77 90 74 81 88 89 84 68 89 113 120 115 109 119 131 138 114 98 91 95 98 118 109 98 114 142 162 169 174 169 175 186 187 180 176 180 177 180 187 190 188
85 81 70 70 76 83 97 94 70 63 82 84 75 68 75 108 121 137 130 92 57 87 85 97 117 123 134 150 158 157 171 174 179 182 189 187 181 177 184 182 182 190 190 210
65 64 68 71 68 72 114 122 107 105 109 95 100 102 113 112 121 125 111 98 81 86 99 100 102 109 126 153 151 162 166 168 171 177 172 172 174 169 165 174 184 190 195 203
54 54 56 69 76 72 83 110 117 115 111 106 90 88 94 87 85 97 81 67 74 70 85 90 96 103 116 131 146 152 157 162 159 162 165 177 178 178 176 188 194 198 214 221
54 53 45 42 50 71 96 96 90 83 72 69 72 66 72 78 78 67 76 84 81 73 78 94 103 113 123 133 138 140 142 146 155 164 172 172 173 168 173 191 205 203 204 197
66 69 70 67 78 77 76 75 82 92 92 91 87 77 69 67 74 80 85 80 78 87 89 85 96 113 125 134 137 140 148 158 166 174 168 165 165 172 196 208 199 188 205 228
88 87 79 89 71 67 72 78 81 83 82 83 75 69 67 71 76 82 83 88 88 95 100 107 113 122 132 138 146 154 156 156 152 147 153 166 182 211 200 202 228 237 237 235
82 74 63 50 31 23 55 71 68 70 65 62 55 61 60 65 64 59 59 75 89 103 116 128 132 126 134 149 159 163 163 155 146 159 184 213 218 210 230 258 266 253 241 222